Location: Cicognara
(44.9500°N, 10.4667°E)
Time: 14:36:44
(UTC+00:00)

Cosmos 2142 Rocket - Pass Details

Date: 20 June 2021
Orbit: 953 x 1004 km, 83.0° (Epoch: 02 August)

Event Time Altitude Azimuth Distance (km) Brightness Sun altitude
Rises 23:26:42 0° 353° (N) 3,641 9.0 -21.6°
Reaches altitude 10° 23:29:13 10° 355° (N) 2,692 8.0 -21.6°
Maximum altitude 23:35:22 75° 81° (E) 992 4.5 -21.5°
Enters shadow 23:37:54 38° 159° (SSE) 1,433 4.9 -21.5°
